Showing default

PAKTES 1A, 43529

Orbit data source: Space-Track

PAKTES 1A, 43529 is a payload satellite owned by SUPARCO (PK) in SSO that was launched on Mon, 09 Jul 2018 UTC via a CHANG ZHENG 2C launch vehicle from the Jiuquan Satellite Launch Center, China (JSC). Payloads include a variety of satellites, spacecraft, and rockets equipped with specific instruments for various scientific and technological missions. These include communications satellites like Starlink; space stations such as the ISS; scientific satellites like the Hubble; Earth observation satellites from companies like Planet Labs, Umbra, and HawkEye 360; GPS; miniature CubeSats for education and research; and military/defense satellites.

Loading next visibility...
PAKTES 1A details
Identifier
43529, 2018-056A
Orbit
SSO
Last TLE update6 hours ago
Origin
Flag of PKSUPARCO (PK / PAKI)
ManufacturerDFH
MissionOperational Civil Imaging
Bus & MotorCAST-2000, Unknown motor
Mass~800 kg wet, ~800 kg dry
Launch date (UTC)
2018-07-09 (6 years ago)
Launch vehicle
CHANG ZHENG 2C
Launch site
Jiuquan Satellite Launch Center, China (JSC)
Object type
Payload
Rocket body
Debris
Shape & HBRBox + 2 Pan, 8.6 m
Radar Cross Section14.475 m², Large (>1 m²)

Expand to show TLE details & history

TLE from 6 hours ago
0 PAKTES 1A
1 43529U 18056A   24361.50575646  .00006959  00000-0  63798-3 0  9992
2 43529  98.0543 128.1320 0024132  95.1271 265.2704 14.95011787351466
Epoch: 2024-12-26T12:08Z
Definitive object data (Epoch: 2024-12-26T12:08:17.358Z)
Latitude0.00002°
Longitude-149.42451°
Altitude586.799 km
Speed7.566 km/s
True Right ascension08h 32m 31s
True Declination0° 00' 00"
Sunlit
Object was in full shadow at TLE epoch
Visualization TLE readout
Latitude10.89273°
Longitude-150.6995°
Altitude582.568 km
Speed7.571 km/s
Apparent Right ascension07h 26m 00s
Apparent Declination-13° 55' 37"
Sunlit
Object is in full shadow
Visualization observer readout
Local Sidereal Time17:59:15
Azimuth317.697° NNW
Elevation-57.799°
Doppler factor1
Orbital elements
Apogee altitude596.154 km
Perigee altitude562.574 km
Semi-major axis6,957.501 km
Eccentricity0.0024132
Inclination98.0543°
RAAN128.132°
Arg. of periapsis95.1271°
True anomaly264.99488°
Mean anomaly265.2704°
Eccentric anomaly265.13263°
Mean motion3.73993 °/min
BSTAR0.00063798
Orbital period96.26 mins
Loading maneuver chart data...
Loading historical data...
Loading historical data...
Loading historical data...
Loading historical data...
Loading historical data...
Loading historical data...
Loading historical data...

PAKTES 1A Visibility forecast

Observer location: undefined°, undefined

Span
Click to sort rows by Start time (UTC) header in descending order
Start Az.
Max El. time (UTC)
Max El. Az.
Max El.
End time (UTC)
End Az.
6 mins2024-12-26 20:44:44.013Z43.983° NE2024-12-26 20:47:44.013Z93.344° ESE20.705°2024-12-26 20:50:44.013Z145.06° SSE
4 mins2024-12-26 22:21:44.013Z322.771° NNW2024-12-26 22:22:44.013Z300.406° NW23.546°2024-12-26 22:25:44.013Z240.528° WSW
5 mins2024-12-27 09:09:44.013Z205.642° SW2024-12-27 09:11:44.013Z261.997° W33.023°2024-12-27 09:14:44.013Z327.102° NNW
|